FW8937 Weather Reports


time (UTC)temp
C
wind
direction
speed
KPH
gust
KPH
rain 1hr
cm
rain 24hr
cm
rain mn
cm
humidity
%
barometer
mb
20260506004218 -3 0 1.6 6.4 0.00 0.86 0.23 88 1011.3
20260506003719 -3 0 1.6 6.4 0.00 0.86 0.23 88 1011.3
20260506003218 -3 63 3.2 8.0 0.00 0.86 0.23 88 1011.3
20260506002718 -3 66 1.6 8.0 0.00 0.86 0.23 88 1011.3
20260506002218 -3 0 1.6 6.4 0.00 0.86 0.23 88 1011.7
20260506001719 -3 0 4.8 14.5 0.00 0.86 0.23 88 1011.5
20260506001218 -3 0 6.4 14.5 0.00 0.86 0.23 88 1011.4
20260506000715 -3 0 4.8 11.3 0.00 0.86 0.23 88 1011.4
20260506000216 -3 0 4.8 11.3 0.00 0.86 0.23 88 1011.3
20260505235717 -3 0 3.2 9.7 0.00 0.86 0.23 88 1011.3
20260505235217 -3 94 4.8 9.7 0.00 0.86 0.23 88 1011.4
20260505234715 -3 0 4.8 12.9 0.00 0.86 0.23 88 1011.5
20260505234213 -3 0 4.8 12.9 0.00 0.86 0.23 89 1011.4
20260505233714 -3 0 4.8 9.7 0.00 0.86 0.23 89 1011.3
20260505233208 -3 0 4.8 9.7 0.00 0.86 0.23 88 1011.4
20260505232702 -3 0 4.8 14.5 0.00 0.86 0.23 89 1011.3
20260505232156 -3 0 4.8 14.5 0.00 0.86 0.23 88 1011.2
20260505231650 -3 0 6.4 14.5 0.00 0.86 0.23 89 1011.3
20260505231145 -3 0 6.4 14.5 0.00 0.86 0.23 89 1011.3
20260505230904 -3 0 4.8 11.3 0.00 0.86 0.23 88 1011.2
20260505230132 -3 0 4.8 12.9 0.00 0.86 0.23 89 1011.0
20260505225626 -3 0 4.8 12.9 0.00 0.86 0.23 88 1010.9
20260505225120 -3 0 3.2 8.0 0.00 0.86 0.23 88 1011.3
20260505224833 -3 57 4.8 14.5 0.03 0.86 0.23 88 1011.5
20260505224108 -2 0 4.8 14.5 0.03 0.86 0.23 88 1011.4
20260505223601 -2 0 3.2 9.7 0.03 0.86 0.23 88 1011.3
20260505223055 -2 0 4.8 9.7 0.03 0.86 0.23 88 1011.5
20260505222550 -2 0 4.8 9.7 0.03 0.86 0.23 88 1011.2
20260505222526 -2 63 6.4 14.5 0.05 0.86 0.23 89 1011.2
20260505221538 -2 0 8.0 17.7 0.05 0.86 0.23 89 1010.8
20260505221032 -1 0 6.4 17.7 0.05 0.86 0.23 89 1010.4
20260505220525 -1 0 6.4 12.9 0.05 0.86 0.23 89 1010.5
20260505220020 -1 0 6.4 12.9 0.05 0.86 0.23 89 1010.5
20260505215514 -1 0 6.4 14.5 0.05 0.86 0.23 89 1011.2
20260505215008 -1 0 8.0 16.1 0.08 0.86 0.23 90 1010.9
20260505214502 -1 0 8.0 16.1 0.05 0.84 0.20 90 1010.6
20260505214220 -1 0 8.0 16.1 0.05 0.84 0.20 90 1010.2
20260505213708 -1 0 8.0 17.7 0.05 0.84 0.20 90 1010.2
20260505212944 -1 0 9.7 17.7 0.05 0.84 0.20 90 1010.4
20260505212918 -1 97 6.4 16.1 0.05 0.84 0.20 90 1010.6
20260505211932 -1 0 6.4 16.1 0.03 0.81 0.18 90 1010.6
20260505211646 0 0 9.7 16.1 0.03 0.81 0.18 90 1010.9
20260505210921 0 0 8.0 16.1 0.03 0.81 0.18 90 1010.9
20260505210421 0 0 8.0 17.7 0.03 0.81 0.18 90 1010.9
20260505205922 0 105 8.0 17.7 0.03 0.81 0.18 91 1010.9
20260505205420 0 0 8.0 16.1 0.05 0.81 0.18 91 1010.8
20260505204920 0 0 8.0 16.1 0.03 0.79 0.15 91 1010.9
20260505204419 -1 0 9.7 17.7 0.03 0.79 0.15 91 1011.2
20260505203920 -1 0 8.0 17.7 0.03 0.79 0.15 91 1011.0
20260505203418 -1 0 6.4 14.5 0.03 0.79 0.15 91 1011.3
20260505202920 -1 0 8.0 12.9 0.03 0.79 0.15 91 1011.4
20260505202420 -1 0 6.4 12.9 0.05 0.79 0.15 91 1011.5
20260505201920 -1 0 8.0 16.1 0.05 0.79 0.15 91 1011.7
20260505201417 -1 0 8.0 16.1 0.05 0.79 0.15 91 1011.7
20260505201133 -1 0 6.4 12.9 0.05 0.79 0.15 91 1011.9
20260505200413 -1 111 8.0 16.1 0.05 0.79 0.15 91 1011.9
20260505195914 -1 0 8.0 16.1 0.05 0.79 0.15 91 1012.1
20260505195411 -1 0 6.4 16.1 0.03 0.76 0.13 91 1011.7
20260505194911 -1 100 6.4 14.5 0.03 0.76 0.13 91 1011.8
20260505194407 -1 0 8.0 16.1 0.03 0.76 0.13 91 1011.8
20260505193907 -1 0 9.7 17.7 0.03 0.76 0.13 91 1011.7
20260505193408 -1 0 8.0 17.7 0.03 0.76 0.13 91 1011.7
20260505192907 -1 130 8.0 17.7 0.03 0.76 0.13 91 1011.8
20260505192407 -1 0 8.0 17.7 0.00 0.74 0.10 91 1011.9
20260505191908 -1 0 8.0 19.3 0.00 0.74 0.10 91 1011.8
20260505191408 -1 0 9.7 19.3 0.00 0.74 0.10 91 1011.5
20260505190908 -1 0 9.7 19.3 0.00 0.74 0.10 92 1011.5
20260505190630 -1 0 9.7 17.7 0.00 0.74 0.10 92 1011.5
20260505185908 -1 0 9.7 17.7 0.00 0.74 0.10 92 1011.5
20260505185631 -1 0 9.7 17.7 0.00 0.74 0.10 92 1011.7
20260505184908 -1 0 9.7 17.7 0.00 0.74 0.10 92 1011.8
20260505184407 -1 0 8.0 17.7 0.00 0.74 0.10 92 1011.8
20260505183908 -1 0 8.0 17.7 0.05 0.74 0.10 92 1011.9
20260505183630 -1 0 6.4 14.5 0.05 0.74 0.10 92 1012.1
20260505183127 -1 0 6.4 16.1 0.05 0.74 0.10 92 1012.1
20260505182406 -1 0 6.4 16.1 0.05 0.74 0.10 92 1012.1
20260505182134 -1 0 6.4 14.5 0.05 0.74 0.10 92 1012.2
20260505181856 -1 0 6.4 14.5 0.05 0.74 0.10 92 1012.3
20260505180901 -1 64 4.8 14.5 0.05 0.74 0.10 92 1012.3
20260505180355 -1 0 4.8 14.5 0.05 0.74 0.10 92 1012.2
20260505180046 -1 0 8.0 16.1 0.05 0.74 0.10 92 1012.2
20260505175932 -1 0 6.4 16.1 0.05 0.74 0.10 92 1012.2
20260505174837 -1 0 6.4 12.9 0.05 0.74 0.10 92 1012.2
20260505174331 -1 0 6.4 9.7 0.00 0.69 0.05 92 1012.2
20260505173825 -1 0 6.4 14.5 0.00 0.69 0.05 92 1012.3
20260505173319 -1 0 6.4 14.5 0.00 0.69 0.05 91 1012.5
20260505172813 -1 0 4.8 12.9 0.00 0.69 0.05 91 1012.5
20260505172307 -1 0 6.4 12.9 0.00 0.69 0.05 92 1012.5
20260505171801 -1 0 4.8 12.9 0.00 0.69 0.05 92 1012.8
20260505171255 -1 0 3.2 11.3 0.00 0.69 0.05 92 1012.8
20260505170750 -1 0 4.8 12.9 0.00 0.69 0.05 92 1012.8
20260505170501 -1 0 4.8 12.9 0.00 0.69 0.05 92 1012.8
20260505165737 -1 0 6.4 14.5 0.00 0.69 0.05 92 1012.8
20260505165231 -1 0 6.4 14.5 0.00 0.69 0.05 92 1012.8
20260505164725 -1 0 4.8 12.9 0.00 0.69 0.05 92 1012.8
20260505164440 -1 0 6.4 12.9 0.00 0.69 0.05 92 1012.7
20260505163935 -1 0 6.4 12.9 0.00 0.69 0.05 92 1012.8
20260505163207 -1 0 6.4 12.9 0.00 0.69 0.05 92 1012.7
20260505162701 -1 0 6.4 12.9 0.00 0.69 0.05 92 1012.7
20260505162416 -1 0 6.4 12.9 0.00 0.69 0.05 92 1012.7
20260505161649 -1 0 6.4 12.9 0.00 0.69 0.05 92 1012.8
20260505161143 -1 106 4.8 11.3 0.00 0.69 0.05 92 1013.0
20260505160904 -1 103 4.8 11.3 0.00 0.69 0.05 92 1013.0
20260505160131 -1 0 4.8 12.9 0.00 0.69 0.05 92 1013.0
20260505153054 -2 0 4.8 12.9 0.00 0.69 0.05 92 1013.1
20260505152549 -2 0 4.8 12.9 0.00 0.69 0.05 92 1013.0
20260505152043 -2 0 4.8 9.7 0.00 0.69 0.05 92 1013.2
20260505151758 -2 0 6.4 9.7 0.00 0.69 0.05 92 1013.4
20260505151031 -2 0 4.8 9.7 0.00 0.69 0.05 92 1013.2
20260505150525 -2 0 4.8 8.0 0.00 0.69 0.05 92 1013.2
20260505140438 -2 0 4.8 8.0 0.00 0.69 0.05 92 1013.4
20260505140202 -2 0 4.8 8.0 0.00 0.69 0.05 92 1013.4
20260505124931 -2 0 3.2 8.0 0.00 0.69 0.05 92 1013.0
20260505124431 -2 75 4.8 8.0 0.00 0.69 0.05 92 1012.8
20260505123931 -2 75 4.8 9.7 0.00 0.69 0.05 92 1012.8
20260505123431 -2 71 4.8 9.7 0.00 0.69 0.05 92 1012.8
20260505122927 -2 71 4.8 8.0 0.00 0.69 0.05 92 1012.8
20260505122423 -2 0 3.2 8.0 0.00 0.69 0.05 92 1012.6
20260505121924 -2 67 4.8 12.9 0.00 0.69 0.05 92 1012.8
20260505121424 -2 67 4.8 12.9 0.00 0.69 0.05 92 1012.8
20260505120923 -1 68 6.4 16.1 0.00 0.69 0.05 92 1013.0
20260505120424 -1 0 4.8 16.1 0.00 0.69 0.05 92 1012.8
20260505115924 -1 0 3.2 11.3 0.00 0.69 0.05 92 1012.7
20260505115423 -1 0 3.2 8.0 0.00 0.69 0.05 92 1012.7
20260505114922 -1 0 3.2 8.0 0.00 0.69 0.05 92 1012.6
20260505114423 -1 0 4.8 9.7 0.00 0.69 0.05 92 1012.7
20260505113921 -1 0 4.8 9.7 0.00 0.69 0.05 92 1012.7
20260505113421 -1 79 4.8 9.7 0.00 0.69 0.05 92 1012.7
20260505112922 -1 0 4.8 12.9 0.00 0.69 0.05 92 1012.6
20260505112422 -1 0 3.2 12.9 0.00 0.69 0.05 92 1012.5
20260505111916 -1 0 3.2 12.9 0.00 0.69 0.05 92 1012.6
20260505111636 -1 0 4.8 12.9 0.00 0.69 0.05 92 1012.6
20260505110904 -1 0 3.2 6.4 0.00 0.69 0.05 92 1012.6
20260505110358 -1 73 3.2 8.0 0.00 0.69 0.05 92 1012.6
20260505101802 0 0 6.4 12.9 0.00 0.69 0.05 92 1012.3
20260505101256 0 0 6.4 12.9 0.00 0.69 0.05 92 1012.3
20260505100750 0 71 4.8 12.9 0.00 0.69 0.05 92 1012.3
20260505100244 0 0 4.8 12.9 0.00 0.69 0.05 92 1012.3
20260505100222 0 0 6.4 12.9 0.00 0.69 0.05 92 1012.5
20260505095232 0 0 6.4 12.9 0.00 0.69 0.05 92 1012.3
20260505094726 0 0 4.8 12.9 0.00 0.69 0.05 92 1012.3
20260505094220 0 0 4.8 11.3 0.00 0.69 0.05 92 1012.3
20260505093714 0 0 4.8 11.3 0.00 0.69 0.05 92 1012.3
20260505093208 0 0 3.2 9.7 0.00 0.69 0.05 92 1012.5
20260505092701 0 0 4.8 9.7 0.00 0.69 0.05 92 1012.5
20260505092156 1 0 4.8 9.7 0.03 0.69 0.05 92 1012.3
20260505091650 1 26 3.2 6.4 0.03 0.69 0.05 92 1012.3
20260505091144 1 30 3.2 6.4 0.03 0.69 0.05 92 1012.5
20260505090900 1 0 3.2 6.4 0.03 0.69 0.05 92 1012.5
20260505090132 1 23 1.6 4.8 0.03 0.69 0.05 92 1012.2
20260505085627 1 25 3.2 6.4 0.03 0.69 0.05 92 1012.2
20260505085120 1 23 4.8 6.4 0.03 0.69 0.05 92 1012.5
20260505084614 1 21 4.8 8.0 0.03 0.69 0.05 92 1012.5
20260505084108 1 0 1.6 8.0 0.03 0.69 0.05 92 1012.3
20260505083602 1 0 1.6 6.4 0.03 0.69 0.05 92 1012.5
20260505083056 1 0 0.0 3.2 0.03 0.69 0.05 92 1012.3
20260505082550 1 0 0.0 0.0 0.03 0.69 0.05 92 1012.6
20260505082044 1 0 0.0 0.0 0.00 0.66 0.03 92 1012.7
20260505081538 1 0 0.0 0.0 0.00 0.66 0.03 92 1012.6
20260505081032 1 0 1.6 3.2 0.03 0.66 0.03 92 1012.8
20260505080525 1 335 1.6 6.4 0.03 0.66 0.03 92 1013.0
20260505080020 1 0 1.6 6.4 0.03 0.66 0.03 92 1012.8
20260505075514 1 0 3.2 6.4 0.03 0.66 0.03 92 1012.7
20260505075008 1 333 4.8 8.0 0.03 0.66 0.03 91 1012.7
20260505074502 1 335 6.4 9.7 0.03 0.66 0.03 91 1013.0
20260505073956 1 335 6.4 9.7 0.03 0.66 0.03 91 1013.1
20260505073718 1 334 6.4 9.7 0.03 0.66 0.03 91 1013.1
20260505073158 1 334 6.4 9.7 0.03 0.66 0.03 91 1013.2
20260505073043 1 333 6.4 9.7 0.03 0.66 0.03 91 1013.2
20260505071949 1 334 8.0 12.9 0.03 0.66 0.03 91 1013.2
20260505071450 1 0 8.0 12.9 0.03 0.66 0.03 91 1013.1
20260505070953 1 0 6.4 12.9 0.00 0.64 0.00 91 1013.2
20260505070450 1 11 4.8 11.3 0.00 0.64 0.00 91 1013.2
20260505065948 1 11 3.2 8.0 0.00 0.64 0.00 91 1013.2
20260505065449 1 11 4.8 8.0 0.00 0.64 0.00 91 1013.0
20260505064948 1 11 4.8 11.3 0.03 0.64 0.00 91 1013.0
20260505064450 1 11 4.8 11.3 0.03 0.64 0.00 91 1013.1
20260505063950 1 13 4.8 6.4 0.03 0.64 0.00 91 1013.0
20260505063714 1 11 3.2 6.4 0.03 0.64 0.00 91 1013.0
20260505063211 1 11 1.6 6.4 0.03 0.64 0.00 91 1013.0
20260505062448 1 11 1.6 4.8 0.03 0.64 0.00 91 1013.1
20260505061949 1 12 1.6 4.8 0.05 0.64 0.00 91 1013.0
20260505061448 1 11 3.2 6.4 0.05 0.64 0.00 91 1013.0
20260505060949 1 12 4.8 6.4 0.05 0.64 0.00 91 1013.0
20260505060450 1 11 3.2 6.4 0.05 0.64 0.00 91 1013.0
20260505055947 1 16 3.2 11.3 0.05 0.64 0.64 91 1013.0
20260505055446 1 0 3.2 11.3 0.08 0.64 0.64 91 1013.0
20260505055200 1 221 3.2 6.4 0.05 0.61 0.61 91 1013.0
20260505054708 1 221 4.8 8.0 0.05 0.61 0.61 91 1013.0
20260505053940 1 221 4.8 8.0 0.05 0.61 0.61 91 1013.0
20260505053442 1 221 4.8 8.0 0.08 0.61 0.61 91 1012.8
20260505052940 1 221 6.4 14.5 0.08 0.61 0.61 91 1012.8
20260505052442 1 221 8.0 19.3 0.08 0.61 0.61 91 1012.7
20260505051941 1 0 9.7 19.3 0.05 0.58 0.58 91 1012.7
20260505051441 1 0 9.7 16.1 0.08 0.58 0.58 91 1012.6
20260505050942 1 0 9.7 17.7 0.08 0.58 0.58 91 1012.8
20260505050437 1 0 9.7 17.7 0.08 0.58 0.58 91 1013.0
20260505041425 1 155 9.7 14.5 0.08 0.51 0.51 90 1013.4
20260505040918 1 183 8.0 14.5 0.10 0.51 0.51 89 1013.6
20260505040413 1 0 8.0 12.9 0.10 0.51 0.51 89 1013.8
20260505035907 1 212 6.4 9.7 0.13 0.51 0.51 89 1013.6
20260505035401 1 0 4.8 8.0 0.10 0.48 0.48 89 1013.5
20260505034855 1 0 4.8 8.0 0.15 0.48 0.48 89 1013.5
20260505034349 1 210 3.2 6.4 0.18 0.48 0.48 88 1013.4
20260505034106 1 0 3.2 6.4 0.20 0.48 0.48 88 1013.6
20260505033336 1 209 3.2 4.8 0.18 0.46 0.48 88 1013.6
20260505033056 1 0 3.2 4.8 0.23 0.46 0.46 87 1013.8
20260505032325 1 0 4.8 8.0 0.28 0.46 0.46 87 1013.5
20260505031819 1 0 4.8 8.0 0.30 0.43 0.43 86 1013.6
20260505031313 1 234 1.6 6.4 0.36 0.43 0.43 86 1013.5
20260505030807 1 236 1.6 4.8 0.36 0.41 0.41 85 1013.6
20260505030537 1 236 3.2 4.8 0.38 0.41 0.41 85 1013.6
20260505025754 1 235 3.2 4.8 0.38 0.38 0.38 84 1013.9
20260505025249 1 235 3.2 6.4 0.36 0.36 0.36 84 1013.5
20260505024743 2 235 6.4 9.7 0.33 0.33 0.33 83 1013.5
20260505024237 2 238 8.0 14.5 0.30 0.30 0.30 82 1013.5
20260505023732 2 0 9.7 17.7 0.28 0.28 0.28 82 1013.5
20260505023713 3 302 8.0 17.7 0.28 0.28 0.28 83 1013.6
20260505022719 3 304 4.8 14.5 0.23 0.23 0.23 84 1013.6
20260505022213 3 0 1.6 8.0 0.18 0.18 0.18 84 1013.5
20260505021708 3 0 1.6 9.7 0.10 0.10 0.13 84 1013.4
20260505021201 4 0 4.8 16.1 0.08 0.08 0.08 84 1013.4
20260505020655 4 0 6.4 17.7 0.05 0.05 0.05 84 1013.2
20260505020149 4 59 9.7 17.7 0.03 0.03 0.03 83 1012.7
20260505015643 4 0 9.7 17.7 0.00 0.00 0.00 82 1013.0
20260505015136 5 0 11.3 19.3 0.00 0.00 0.00 81 1013.0
20260505014631 5 0 11.3 20.9 0.00 0.00 0.00 79 1012.8
20260505014125 5 0 12.9 20.9 0.00 0.00 0.00 77 1012.7
20260505013845 5 0 11.3 20.9 0.00 0.00 0.00 76 1012.7
20260505013113 5 0 6.4 20.9 0.00 0.00 0.00 76 1012.5
20260505012607 6 0 4.8 9.7 0.00 0.00 0.00 75 1012.6
20260505012101 6 0 6.4 12.9 0.00 0.00 0.00 74 1012.7
20260505011555 6 0 8.0 14.5 0.00 0.00 0.00 74 1012.8
20260505011049 6 0 6.4 14.5 0.00 0.00 0.00 72 1012.8
20260505010543 6 0 8.0 16.1 0.00 0.00 0.00 70 1012.7
20260505010037 6 156 9.7 19.3 0.00 0.00 0.00 69 1012.8
20260505005531 6 140 8.0 19.3 0.00 0.00 0.00 69 1012.6
20260505005025 6 172 8.0 17.7 0.00 0.00 0.00 70 1012.7